SCP
0 0 0 0 0 0 0 0 0 0 0 0 0 0 0 0 0 0 0 0 0 0 0 0 0 0 0 0 0 0 0 0 0 0 0 0 0 0 0 0 0 0 0 0 0 0 0 0 0
0 0 0 0 0 0 0 0 0 0 0 0 0 0 0 0 0 0 0 0 0 0 0 0 0 0 0 0 0 0 0 0 0 0 0 0 0 0 0 0 0 0 0 0 0 0 0 0 0
0 0 0 0 0 0 0 0 0 0 0 0 0 0 0 0 0 0 0 0 0 0 0 0 0 0 0 0 0 0 0 0 0 0 0 0 0 0 0 0 0 0 0 0 0 0 0 0 0
0 0 0 0 0 0 0 0 0 0 0 0 0 0 0 0 0 0 0 0 0 0 0 0 0 0 0 0 0 0 0 0 0 0 0 0 0 0 0 0 0 0 0 0 0 0 0 0 0
0 0 0 0 0 0 0 0 0 0 0 0 0 0 0 0 0 0 0 0 0 0 0 0 0 0 0 0 0 0 0 0 0 0 0 0 0 0 0 0 0 0 0 0 0 0 0 0 0
0 0 0 0 0 0 0 0 0 0 0 0 0 0 0 0 0 0 0 0 0 0 0 0 0 0 0 0 0 0 0 0 0 0 0 0 0 0 0 0 0 0 0 0 0 0 0 0 0
0 0 0 0 0 0 0 0 0 0 0 0 0 0 0 0 0 0 0 0 0 0 0 0 0 0 0 0 0 0 0 0 0 0 0 0 0 0 0 0 0 0 0 0 0 0 0 0 0
0 0 0 0 0 0 0 0 0 0 0 0 0 0 0 0 0 0 0 0 0 0 0 0 0 0 0 0 0 0 0 0 0 0 0 0 0 0 0 0 0 0 0 0 0 0 0 0 0
0 0 0 0 0 0 0 0 0 0 0 0 0 0 0 0 0 0 0 0 0 0 0 0 0 0 0 0 0 0 0 0 0 0 0 0 0 0 0 0 0 0 0 0 0 0 0 0 0
0 0 0 0 0 0 0 0 0 0 0 0 0 0 0 0 0 0 0 0 0 0 0 0 0 0 0 0 0 0 0 0 0 0 0 0 0 0 0 0 0 0 0 0 0 0 0 0 0
0 0 0 0 0 0 0 0 0 0 0 0 0 0 0 0 0 0 0 0 0 0 0 0 0 0 0 0 0 0 0 0 0 0 0 0 0 0 0 0 0 0 0 0 0 0 0 0 0
0 0 0 0 0 0 0 0 0 0 0 0 0 0 0 0 0 0 0 0 0 0 0 0 0 0 0 0 0 0 0 0 0 0 0 0 0 0 0 0 0 0 0 0 0 0 0 0 0
0 0 0 0 0 0 0 0 0 0 0 0 0 0 0 0 0 0 0 0 0 0 0 0 0 0 0 0 0 0 0 0 0 0 0 0 0 0 0 0 0 0 0 0 0 0 0 0 0
0 0 0 0 0 0 0 0 0 0 0 0 0 0 0 0 0 0 0 0 0 0 0 0 0 0 0 0 0 0 0 0 0 0 0 0 0 0 0 0 0 0 0 0 0 0 0 0 0
0 0 0 0 0 0 0 0 0 0 0 0 0 0 0 0 0 0 0 0 0 0 0 0 0 0 0 0 0 0 0 0 0 0 0 0 0 0 0 0 0 0 0 0 0 0 0 0 0
0 0 0 0 0 0 0 0 0 0 0 0 0 0 0 0 0 0 0 0 0 0 0 0 0 0 0 0 0 0 0 0 0 0 0 0 0 0 0 0 0 0 0 0 0 0 0 0 0
0 0 0 0 0 0 0 0 0 0 0 0 0 0 0 0 0 0 0 0 0 0 0 0 0 0 0 0 0 0 0 0 0 0 0 0 0 0 0 0 0 0 0 0 0 0 0 0 0
0 0 0 0 0 0 0 0 0 0 0 0 0 0 0 0 0 0 0 0 0 0 0 0 0 0 0 0 0 0 0 0 0 0 0 0 0 0 0 0 0 0 0 0 0 0 0 0 0
0 0 0 0 0 0 0 0 0 0 0 0 0 0 0 0 0 0 0 0 0 0 0 0 0 0 0 0 0 0 0 0 0 0 0 0 0 0 0 0 0 0 0 0 0 0 0 0 0
0 0 0 0 0 0 0 0 0 0 0 0 0 0 0 0 0 0 0 0 0 0 0 0 0 0 0 0 0 0 0 0 0 0 0 0 0 0 0 0 0 0 0 0 0 0 0 0 0
0 0 0 0 0 0 0 0 0 0 0 0 0 0 0 0 0 0 0 0 0 0 0 0 0 0 0 0 0 0 0 0 0 0 0 0 0 0 0 0 0 0 0 0 0 0 0 0 0
0 0 0 0 0 0 0 0 0 0 0 0 0 0 0 0 0 0 0 0 0 0 0 0 0 0 0 0 0 0 0 0 0 0 0 0 0 0 0 0 0 0 0 0 0 0 0 0 0
0 0 0 0 0 0 0 0 0 0 0 0 0 0 0 0 0 0 0 0 0 0 0 0 0 0 0 0 0 0 0 0 0 0 0 0 0 0 0 0 0 0 0 0 0 0 0 0 0
0 0 0 0 0 0 0 0 0 0 0 0 0 0 0 0 0 0 0 0 0 0 0 0 0 0 0 0 0 0 0 0 0 0 0 0 0 0 0 0 0 0 0 0 0 0 0 0 0
0 0 0 0 0 0 0 0 0 0 0 0 0 0 0 0 0 0 0 0 0 0 0 0 0 0 0 0 0 0 0 0 0 0 0 0 0 0 0 0 0 0 0 0 0 0 0 0 0
0 0 0 0 0 0 0 0 0 0 0 0 0 0 0 0 0 0 0 0 0 0 0 0 0 0 0 0 0 0 0 0 0 0 0 0 0 0 0 0 0 0 0 0 0 0 0 0 0
0 0 0 0 0 0 0 0 0 0 0 0 0 0 0 0 0 0 0 0 0 0 0 0 0 0 0 0 0 0 0 0 0 0 0 0 0 0 0 0 0 0 0 0 0 0 0 0 0
0 0 0 0 0 0 0 0 0 0 0 0 0 0 0 0 0 0 0 0 0 0 0 0 0 0 0 0 0 0 0 0 0 0 0 0 0 0 0 0 0 0 0 0 0 0 0 0 0
0 0 0 0 0 0 0 0 0 0 0 0 0 0 0 0 0 0 0 0 0 0 0 0 0 0 0 0 0 0 0 0 0 0 0 0 0 0 0 0 0 0 0 0 0 0 0 0 0
0 0 0 0 0 0 0 0 0 0 0 0 0 0 0 0 0 0 0 0 0 0 0 0 0 0 0 0 0 0 0 0 0 0 0 0 0 0 0 0 0 0 0 0 0 0 0 0 0
Wind_Speed
2 1 2 2 2 4 7 6 5 5 5 5 6 5 6 7 6 6 4 4 4 5 5 6 7 7 7 7 8 8 8 8 8 8 8 8 8 9 8 9 9 10 10 10 10 10 10 10 10
2 1 2 2 1 5 7 5 6 6 5 4 5 5 6 7 6 6 4 5 4 5 6 7 7 6 7 8 8 8 8 8 8 8 8 8 8 8 8 9 9 10 10 10 10 10 10 10 10
0 2 1 0 3 5 6 6 6 7 5 2 4 5 5 6 5 5 5 5 5 6 6 8 7 7 8 8 8 8 8 8 8 8 8 8 8 8 9 9 10 10 10 10 10 9 9 9 10
2 2 1 3 9 8 7 6 5 6 5 4 4 6 6 6 4 5 5 4 5 6 6 8 7 8 7 7 7 7 7 7 8 7 7 7 8 8 9 9 9 10 10 10 9 9 10 9 9
1 0 4 7 8 7 6 5 4 4 5 5 5 7 7 5 6 7 6 5 5 6 6 7 8 7 7 7 6 6 6 7 7 7 8 8 8 8 9 9 9 9 9 10 9 9 9 9 9
1 1 4 7 8 7 6 4 4 5 6 5 5 6 7 5 6 5 5 5 5 5 5 6 8 7 7 7 7 7 7 7 7 8 8 9 9 9 9 10 10 10 10 9 9 8 9 9 9
1 2 5 7 7 6 5 3 4 4 6 5 3 5 6 5 5 4 5 5 5 5 5 5 5 5 6 7 7 7 7 7 7 7 8 9 9 10 10 10 10 10 10 10 9 8 9 9 9
1 2 6 5 6 6 5 4 4 4 6 4 1 3 5 6 5 5 4 4 4 4 5 5 5 5 5 6 8 7 7 7 7 7 8 7 8 9 8 9 9 9 9 9 9 10 10 10 9
1 2 5 4 4 6 5 5 5 4 5 5 4 5 6 7 6 5 4 4 4 4 4 4 4 5 5 5 6 5 6 6 5 7 6 4 5 7 7 10 9 9 8 9 9 10 9 9 10
1 3 5 4 4 6 6 5 4 4 5 5 6 6 7 7 6 5 4 3 4 4 4 4 4 4 5 4 4 4 4 5 5 5 5 4 5 5 6 8 8 8 8 9 9 8 6 3 5
4 5 6 5 5 5 5 4 3 3 4 4 5 7 7 6 5 4 3 3 3 4 4 4 4 4 4 3 3 3 3 3 5 5 5 4 4 4 4 3 5 5 5 5 6 4 4 5 4
6 6 4 5 4 4 4 4 3 2 3 3 5 7 7 6 5 3 2 2 3 3 4 4 4 4 4 4 3 3 3 3 3 4 5 3 3 3 4 3 4 3 3 4 4 3 5 6 6
6 5 5 5 5 4 4 3 3 3 2 4 6 7 6 5 4 3 2 2 2 3 3 4 3 4 4 4 2 3 3 3 4 3 3 4 3 3 3 3 3 3 3 4 4 5 6 6 6
5 5 5 4 3 3 4 3 2 3 4 5 6 6 5 4 4 3 3 3 2 3 3 4 4 4 4 4 3 3 3 3 3 3 3 4 3 3 3 4 4 4 3 4 4 6 5 5 5
5 5 4 3 2 2 3 3 2 4 5 6 5 5 4 4 4 3 3 2 2 3 3 4 3 4 4 4 4 3 3 3 3 2 3 4 3 3 3 3 4 4 4 4 4 6 5 5 5
4 4 3 3 2 2 4 2 4 4 5 5 4 4 4 4 4 3 3 2 2 2 3 4 3 3 4 3 3 3 3 3 3 3 3 3 4 4 4 3 4 4 4 4 4 4 4 5 5
5 4 4 4 2 2 2 1 4 4 5 5 4 4 4 4 4 4 4 3 3 3 3 4 4 3 3 3 3 3 3 3 3 2 3 3 3 3 4 3 3 4 3 3 4 4 4 5 5
4 3 3 3 4 3 2 1 3 4 4 4 4 4 4 4 4 4 4 3 3 3 3 4 4 3 3 2 2 2 2 2 2 2 3 3 2 3 4 3 4 4 4 3 4 5 4 4 3
2 3 2 2 3 3 2 1 2 4 5 5 4 4 4 4 4 5 5 4 4 4 3 4 4 4 3 2 2 2 2 1 2 2 3 2 3 3 3 3 4 3 4 4 4 4 5 4 3
5 5 3 3 3 2 1 1 1 3 4 5 4 4 4 4 5 5 5 5 4 4 4 3 3 3 3 2 1 2 2 1 2 2 2 2 3 3 3 3 3 4 3 4 4 3 2 2 1
5 5 3 2 3 4 3 2 3 3 3 3 4 4 4 5 6 6 6 5 5 4 4 3 3 3 3 3 2 2 2 2 2 2 2 2 3 3 3 3 3 3 3 3 3 2 1 2 1
4 3 4 4 4 2 3 2 2 3 3 3 4 4 5 6 6 6 6 6 5 4 4 4 3 3 3 3 3 3 2 2 2 2 2 2 3 3 2 3 3 3 2 2 2 2 1 1 1
1 1 4 5 5 4 4 4 1 2 2 2 4 5 5 6 7 7 6 6 5 5 4 4 3 3 3 3 3 3 2 2 2 2 3 3 3 2 2 2 2 2 2 1 1 1 1 1 1
4 4 4 5 5 5 3 4 1 1 1 1 2 4 5 6 7 7 6 6 5 5 4 4 4 3 3 3 3 3 3 3 3 3 2 2 2 2 3 2 2 2 1 1 1 1 1 0 0
7 6 4 5 5 2 2 3 1 2 1 2 2 2 4 5 7 7 7 6 5 5 5 5 4 4 4 4 4 4 4 3 3 3 2 2 2 2 2 2 2 2 2 1 1 1 1 1 1
7 7 5 3 2 2 4 3 2 3 1 1 0 2 4 5 6 6 6 6 6 6 6 5 5 4 4 4 3 3 4 2 2 2 2 2 1 2 2 2 2 2 2 2 1 1 1 1 1
6 5 4 5 3 3 3 2 2 2 1 2 2 2 3 5 6 6 6 6 6 6 6 5 5 5 5 4 4 3 4 3 3 2 2 2 2 2 2 3 2 2 1 1 1 1 1 1 1
4 4 5 5 4 4 3 4 2 3 1 2 2 2 3 4 5 6 6 6 6 6 5 5 5 5 5 4 3 3 4 4 3 3 3 3 2 2 3 3 3 2 2 2 1 1 1 2 2
6 7 6 5 5 5 3 2 2 1 1 1 2 3 3 4 5 5 5 5 5 5 5 5 5 5 4 4 4 4 4 3 4 3 3 3 3 3 3 2 2 2 2 2 2 2 2 2 2
5 6 7 6 5 5 5 1 3 1 1 1 1 3 3 4 4 5 5 6 5 5 5 5 5 5 4 4 4 4 4 4 4 4 4 4 3 3 3 2 2 2 2 2 3 3 2 2 2
Wind_Direction
252 291 259 244 203 98 76 71 69 83 72 61 59 62 65 49 30 61 74 72 59 61 58 68 51 50 60 62 68 67 70 69 70 72 73 71 71 70 70 74 76 79 80 79 80 79 83 84 83
328 287 248 252 203 104 83 75 76 68 85 101 79 71 75 69 55 78 89 75 68 61 55 54 54 55 63 65 67 67 69 69 69 71 72 73 75 75 73 76 75 79 82 81 80 78 80 81 82
289 258 291 41 69 72 90 80 87 90 87 86 86 61 55 66 68 76 78 85 77 67 65 66 56 58 62 63 65 67 68 68 67 69 72 76 79 76 72 75 77 80 82 84 83 82 80 78 79
247 205 158 95 88 70 78 94 106 116 96 72 94 90 80 58 64 81 91 87 82 74 70 72 59 60 62 61 61 66 68 67 67 71 74 78 82 80 77 76 78 79 81 80 83 86 84 80 78
260 226 119 104 91 84 79 83 101 95 92 84 91 98 93 81 83 89 93 84 79 77 73 72 61 56 59 59 61 67 67 67 67 69 72 76 80 78 78 78 78 78 81 81 80 84 85 82 77
181 168 124 109 101 97 91 91 98 90 95 98 96 100 90 96 96 91 91 87 81 77 74 77 81 64 60 58 60 62 64 68 69 69 69 73 76 79 78 78 79 77 77 78 80 83 85 83 80
82 97 103 111 113 105 89 85 83 91 94 83 83 102 110 113 100 104 98 92 84 80 74 67 72 88 90 73 61 61 63 64 66 69 73 77 80 79 80 81 80 80 76 75 77 85 87 85 83
21 121 118 114 118 100 96 98 76 68 84 81 59 100 117 122 123 120 107 97 89 82 73 65 65 63 71 85 76 67 66 65 70 73 74 84 98 95 90 89 79 79 78 78 80 83 81 80 81
270 137 115 111 116 108 117 116 97 87 101 96 74 65 95 121 133 128 119 107 93 79 70 66 64 66 66 67 82 91 90 78 89 91 90 103 91 89 94 75 76 77 77 78 81 83 84 90 87
84 107 94 93 102 112 117 104 110 125 113 111 109 103 118 134 141 133 122 104 94 86 71 67 67 69 73 69 76 72 80 78 66 69 78 77 77 73 77 94 86 83 83 85 81 89 101 105 98
86 94 107 111 108 117 121 106 101 112 96 98 125 132 137 139 135 130 112 93 84 78 73 67 71 75 76 79 70 68 71 71 68 63 72 73 77 87 82 92 105 98 98 89 95 100 82 83 80
103 96 109 113 120 123 117 116 108 69 62 73 119 137 144 147 141 139 123 96 89 75 72 77 70 82 80 74 72 73 76 71 70 62 63 65 68 72 74 75 74 78 81 78 76 75 83 84 83
109 108 104 115 121 119 120 115 110 105 100 112 129 141 149 151 147 140 128 116 105 91 86 81 73 72 79 75 72 81 78 69 74 60 60 71 71 77 77 80 75 72 80 88 79 80 78 74 70
109 115 115 122 131 141 135 123 129 122 141 138 142 149 155 154 154 150 148 134 119 101 89 96 90 81 78 81 83 77 75 80 62 54 54 61 68 75 81 79 76 74 75 77 83 84 83 76 74
139 135 134 141 157 154 174 124 106 129 155 151 154 151 158 164 169 172 159 144 123 107 105 106 97 92 83 75 72 75 68 71 72 59 56 67 66 81 86 80 82 86 92 94 84 84 84 86 87
172 177 154 129 176 171 228 100 105 147 170 164 161 155 166 171 183 173 167 157 129 130 125 117 120 110 91 84 82 76 73 69 70 61 52 58 66 77 81 82 85 88 93 91 88 86 91 91 86
188 177 146 137 162 174 206 96 118 155 177 172 169 168 177 172 182 176 176 172 152 156 144 134 127 117 108 105 106 87 79 64 62 58 47 45 57 82 94 86 87 95 91 89 91 86 87 92 91
167 171 158 149 141 174 186 173 135 164 187 185 180 183 182 175 173 173 171 160 153 156 156 139 132 130 120 124 120 100 77 69 59 54 42 49 66 83 98 104 96 93 93 94 98 99 91 87 94
182 186 167 135 143 188 203 229 181 176 194 204 201 195 192 176 161 161 164 160 159 161 165 152 149 136 131 135 136 117 88 77 74 60 54 62 80 89 96 101 97 98 101 102 103 104 107 103 107
204 204 188 143 147 209 197 253 186 185 207 217 216 209 199 184 167 159 168 167 173 166 166 162 152 142 140 128 111 104 98 82 72 70 76 74 88 95 103 111 118 118 112 115 107 108 112 114 138
212 227 210 179 162 192 237 203 162 159 190 210 225 225 206 195 188 173 173 172 173 173 173 172 165 159 153 141 128 133 130 135 135 113 88 77 86 96 102 116 126 125 126 121 119 133 149 142 134
219 220 222 213 227 216 246 269 136 159 169 195 214 217 211 197 194 184 178 178 178 177 178 179 163 159 153 158 162 167 165 143 119 110 108 117 107 105 111 128 141 139 136 136 134 135 181 204 160
216 187 211 227 244 248 228 255 135 153 203 211 214 214 211 199 195 192 187 183 179 173 178 174 162 159 159 166 158 183 158 130 127 130 129 123 113 110 119 126 138 139 147 152 136 161 220 236 280
162 171 178 213 236 238 230 246 216 150 278 259 210 207 205 197 189 188 181 178 172 169 171 171 171 162 163 177 181 183 161 161 158 156 144 141 128 124 125 133 142 139 140 143 147 152 169 246 353
205 221 213 206 208 197 141 235 276 53 323 287 251 187 186 185 180 179 177 177 172 171 172 176 172 170 174 181 185 187 181 185 183 176 161 163 146 135 133 151 151 137 129 131 146 155 152 144 138
210 236 254 255 239 160 178 224 90 66 42 346 191 161 163 170 173 175 176 176 175 175 174 176 175 177 180 188 185 185 180 190 186 186 185 178 150 132 131 147 144 134 142 148 144 165 140 135 131
206 220 266 272 255 248 192 174 159 141 122 114 114 140 163 171 173 174 174 178 179 179 177 180 180 181 184 190 189 188 186 187 186 190 189 190 169 149 152 154 150 141 143 158 166 160 137 129 121
258 206 213 237 247 239 209 215 197 150 148 151 153 163 171 174 173 172 173 177 180 181 180 184 191 189 185 193 193 191 197 190 192 191 180 181 168 163 177 170 166 157 149 159 159 163 144 159 122
191 205 220 232 254 265 242 161 76 142 167 187 183 186 180 176 177 174 171 172 171 170 176 182 189 190 189 195 190 188 189 189 187 186 179 183 176 172 180 183 179 164 167 167 161 174 162 166 143
243 233 228 237 227 244 267 221 98 144 157 165 177 174 173 175 174 171 168 163 165 171 176 181 183 186 188 192 191 189 185 187 190 186 186 187 179 177 178 172 171 161 176 180 164 161 167 159 145